This is the latest recevied weather packets stored in our database for station/object K9RJT. If no packets are shown the sender has not sent any weather packets the latest 10 day(s).
| Time | Temp. | Humidity | Pressure | Rain* | Wind** | Luminosity | Snow |
|---|---|---|---|---|---|---|---|
| 1778195235 | 25° C | 26% | 1010.5 hPa | 0 mm | - | 283 W/m² | - |
| 1778194933 | 25.56° C | 26% | 1010.5 hPa | 0 mm | - | 341 W/m² | - |
| 1778194632 | 25° C | 26% | 1010.8 hPa | 0 mm | - | 448 W/m² | - |
| 1778194329 | 25° C | 27% | 1010.6 hPa | 0 mm | - | 452 W/m² | - |
| 1778194024 | 25° C | 27% | 1010.8 hPa | 0 mm | - | 459 W/m² | - |
| 1778193721 | 25.56° C | 27% | 1011.1 hPa | 0 mm | - | 473 W/m² | - |
| 1778193417 | 25° C | 26% | 1010.8 hPa | 0 mm | - | 483 W/m² | - |
| 1778193114 | 25° C | 26% | 1011.2 hPa | 0 mm | - | 494 W/m² | - |
| 1778192811 | 25° C | 25% | 1011 hPa | 0 mm | - | 504 W/m² | - |
| 1778192508 | 25.56° C | 26% | 1011.1 hPa | 0 mm | - | 515 W/m² | - |
| 1778192204 | 25.56° C | 26% | 1011 hPa | 0 mm | - | 524 W/m² | - |
| 1778191900 | 25° C | 26% | 1010.8 hPa | 0 mm | - | 530 W/m² | - |
| 1778191598 | 24.44° C | 27% | 1011.1 hPa | 0 mm | - | 548 W/m² | - |
| 1778191296 | 24.44° C | 24% | 1011.2 hPa | 0 mm | - | 548 W/m² | - |
| 1778190991 | 25° C | 24% | 1011.3 hPa | 0 mm | - | 562 W/m² | - |
| 1778190689 | 24.44° C | 25% | 1011.4 hPa | 0 mm | - | 580 W/m² | - |
| 1778190386 | 25° C | 27% | 1011.6 hPa | 0 mm | - | 589 W/m² | - |
| 1778190083 | 23.89° C | 26% | 1011.3 hPa | 0 mm | - | 598 W/m² | - |
| 1778189778 | 23.89° C | 28% | 1011.6 hPa | 0 mm | - | 585 W/m² | - |
| 1778189476 | 24.44° C | 29% | 1011.7 hPa | 0 mm | - | 575 W/m² | - |
| 1778189172 | 23.89° C | 27% | 1011.5 hPa | 0 mm | - | 628 W/m² | - |
| 1778188869 | 24.44° C | 28% | 1011.8 hPa | 0 mm | - | 589 W/m² | - |
| 1778188565 | 23.89° C | 29% | 1011.6 hPa | 0 mm | - | 686 W/m² | - |
| 1778188261 | 23.89° C | 27% | 1011.8 hPa | 0 mm | - | 697 W/m² | - |
| 1778187959 | 23.33° C | 28% | 1012 hPa | 0 mm | - | 702 W/m² | - |
* Rain latest hour (hover to see other rain measurements)
** Current wind speed in m/s (hover to see current wind gust speed)